Regional Weather Roundup
Issued by NWS

Home | Current Version | Previous Version | Graphics & Text | Print | Product List | Glossary On
Versions: 1 2 3 4 5 6 7 8 9 10 11 12 13 14 15 16 17 18 19 20 21 22 23 24 25 26 27 28 29 30 31 32 33 34 35 36 37 38 39 40 41 42 43 44 45 46 47 48 49 50
000
ASUS43 KMPX 290001
RWRMN
WEATHER ROUNDUP FOR MINNESOTA
NATIONAL WEATHER SERVICE TWIN CITIES/CHANHASSEN MN
700 PM CDT WED SEP 28 2016


NOTE: "FAIR" INDICATES FEW OR NO CLOUDS BELOW 12,000 FEET WITH NO
SIGNIFICANT WEATHER AND/OR OBSTRUCTIONS TO VISIBILITY. N/A MEANS
CURRENT SKY AND/OR WEATHER CONDITIONS ARE NOT AVAILABLE.

MNZ060>063-068>070-290100-
   Twin Cities Metro

CITY           SKY/WX    TMP DP  RH WIND       PRES   REMARKS
TWIN CITIES    CLOUDY    59  48  67 N13       30.30R
6HR MIN TEMP:  59; 6HR MAX TEMP:  62;

ST PAUL        CLOUDY    59  49  69 N9        30.30R
CRYSTAL        CLOUDY    59  47  64 N6        30.30R
BLAINE         CLOUDY    61  50  67 N8        30.31R
LAKEVILLE      MOCLDY    55  48  76 N9        30.29R
EDEN PRAIRIE   CLOUDY    60  48  64 N10G18    30.29R
6HR MIN TEMP:  60; 6HR MAX TEMP:  62;

LAKEVILLE      MOCLDY    55  48  76 N9        30.29R
SOUTH ST PAUL  MOCLDY    59  49  69 N8G18     30.29R
LAKE ELMO      CLOUDY    59  50  72 N7        30.30R
$$
MNZ001>005-007-008-013>017-022>024-027-028-290100-
   Northwest Minnesota

CITY           SKY/WX    TMP DP  RH WIND       PRES   REMARKS
BEMIDJI        CLOUDY    55  48  77 CALM      30.37R
HALLOCK        CLEAR     59  48  67 CALM      30.37R
ROSEAU         CLOUDY    57  52  82 CALM      30.38R
WARROAD        PTCLDY    54  50  87 CALM      30.38R
THIEF RVR FALL CLOUDY    57  49  74 NE3       30.38R
CROOKSTON      CLOUDY    59  48  67 CALM      30.37R
FOSSTON        CLOUDY    54  48  82 CALM      30.38R
DETROIT LAKES  PTCLDY    57  46  67 E3        30.36R
MOORHEAD       CLEAR     61  46  59 NE7       30.35R
PARK RAPIDS    CLOUDY    58  44  60 E3        30.35
MAHNOMEN       CLOUDY    56  47  73 NE8       30.36R
$$
MNZ006-009>011-018-025>026-290100-
   North Central Minnesota

CITY           SKY/WX    TMP DP  RH WIND       PRES   REMARKS
BAUDETTE       CLOUDY    55  49  80 NW5       30.37
FLAG ISLAND    CLOUDY    57  50  77 N6        30.37R
INTL FALLS     CLOUDY    56  47  71 N6        30.37R
6HR MIN TEMP:  56; 6HR MAX TEMP:  61;

WASKISH        CLOUDY    55  52  88 CALM      30.37R
BIG FORK       CLOUDY    55  52  88 CALM      30.37R
GRAND RAPIDS   CLOUDY    56  46  69 CALM      30.37R
ORR            CLOUDY    55  48  76 CALM      30.34R
COOK           CLOUDY    55  50  82 CALM      30.36R
WALKER         CLOUDY    55  44  66 NE3       30.36R
$$
MNZ012-019>021-037-290100-
   Northeast Minnesota

CITY           SKY/WX    TMP DP  RH WIND       PRES   REMARKS
DULUTH         CLOUDY    55  50  83 E3        30.34R
6HR MIN TEMP:  54; 6HR MAX TEMP:  59;

ELY            CLOUDY    55  48  76 CALM      30.35R
HIBBING        CLOUDY    55  49  80 N3        30.35R
EVELETH        CLOUDY    58  50  75 CALM      30.36R
DULUTH HARBOR  CLOUDY    55  52  88 N6        30.35R
TWO HARBORS    CLOUDY    57  52  82 CALM      30.32S
SILVER BAY     CLOUDY    55  52  88 CALM      30.33R
GRAND MARAIS     N/A     55  52  89 CALM      30.34R
G MARAIS ARPRT CLOUDY    52  46  82 N5        30.35R
$$
MNZ029>031-032-039>041-046>048-054>057-064-290100-
   West Central Minnesota

CITY           SKY/WX    TMP DP  RH WIND       PRES   REMARKS
FERGUS FALLS   CLEAR     59  46  63 CALM      30.35R
MORRIS         CLEAR     59  46  63 NE5       30.32R
ALEXANDRIA     CLOUDY    59  48  67 E9        30.35R
ELBOW LAKE     FAIR      59  47  64 E3        30.34R
WADENA         CLOUDY    55  45  67 E6        30.35R
GLENWOOD       MOCLDY    55  48  76 E6        30.34R
BENSON         CLOUDY    61  46  59 SE3       30.33R
ORTONVILLE     CLEAR     61  46  59 CALM      30.32R
MADISON        PTCLDY    63  48  59 N7        30.32R
WILLMAR        CLOUDY    61  48  63 NE7       30.35R
$$
MNZ033>034-036-042>043-049>051-058-059-290100-
   Central Minnesota

CITY           SKY/WX    TMP DP  RH WIND       PRES   REMARKS
ST CLOUD       CLOUDY    57  48  72 N7        30.33R
6HR MIN TEMP:  57; 6HR MAX TEMP:  64;

SAUK CENTRE    CLOUDY    56  47  70 NE6       30.34R
PAYNESVILLE    CLOUDY    58  47  69 NE3       30.34R
AITKIN         CLOUDY    57  48  72 CALM      30.33S
PINE RIVER     CLOUDY    55  50  82 CALM      30.38R
BRAINERD       CLOUDY    55  49  80 CALM      30.35
STAPLES        CLOUDY    55  45  67 NE3       30.35R
LONG PRAIRIE   CLOUDY    55  46  71 N3        30.35R
LITTLE FALLS   CLOUDY    55  46  71 CALM      30.35R
LITCHFIELD     CLOUDY    61  50  67 N6        30.33R
BUFFALO        CLOUDY    58  49  72 N5        30.33R
MAPLE LAKE     CLOUDY    59  51  75 NE3       30.34R
HUTCHINSON     CLOUDY    60  50  70 NE7       30.33R
$$
MNZ037-044-045-052-053-290100-
   East Central Minnesota

CITY           SKY/WX    TMP DP  RH WIND       PRES   REMARKS
PRINCETON        N/A     59  50  72 CALM      30.33R
MORA           CLOUDY    55  46  71 CALM      30.35R
CAMBRIDGE      CLOUDY    61  46  59 N3        30.31R
MOOSE LAKE     CLOUDY    54  48  82 NE3       30.33R
HINCKLEY       CLOUDY    55  50  82 N5        30.33R
CLOQUET        CLOUDY    55  46  71 CALM      30.34R
MCGREGOR       CLOUDY    55  46  71 CALM      30.35R
$$
MNZ071>073-080-081-089-090-097-098-290100-
   Southwest Minnesota

CITY           SKY/WX    TMP DP  RH WIND       PRES   REMARKS
MONTEVIDEO     MOCLDY    63  46  55 E10       30.34R
GRANITE FALLS  PTCLDY    60  49  67 NE6       30.33R
CANBY          CLEAR     60  47  63 N3        30.33R
MARSHALL       MOCLDY    60  46  59 NE6       30.31R
REDWOOD FALLS  CLOUDY    61  47  59 N7        30.32R
OLIVIA         CLOUDY    59  46  63 NE8       30.32R
PIPESTONE      CLEAR     59  45  58 NE5       30.31S
WINDOM         PTCLDY    57  46  67 NE6       30.31R
WORTHINGTON    CLOUDY    59  48  67 N6        30.30R
JACKSON        MOCLDY    59  45  58 NE6       30.31R
TRACY          CLOUDY    61  49  64 NE7       30.31R
$$
MNZ065>067-074>077-082>085-091>093-290100-
   South Central Minnesota

CITY           SKY/WX    TMP DP  RH WIND       PRES   REMARKS
MANKATO        CLOUDY    59  49  69 N10       30.29R
ST JAMES       CLEAR     57  48  72 N6        30.31R
FAIRMONT       MOCLDY    58  48  69 N9G17     30.29R
GLENCOE        CLOUDY    60  53  77 N5        30.31R
FARIBAULT      CLOUDY    59  50  72 N9        30.29R
OWATONNA       CLOUDY    59  48  67 N14       30.27R
WASECA         CLOUDY    55  46  71 N10G17    30.29R
ALBERT LEA     CLOUDY    61  48  63 N8        30.26R
$$
MNZ078>079-086>088-094>096-290100-
   Southeast Minnesota

CITY           SKY/WX    TMP DP  RH WIND       PRES   REMARKS
ROCHESTER      CLOUDY    59  51  75 N15       30.25R
6HR MIN TEMP:  58; 6HR MAX TEMP:  65;

RED WING       CLOUDY    61  48  63 N9G17     30.26R
DODGE CENTER   CLOUDY    57  48  72 N9        30.26R
WINONA         CLOUDY    61  50  67 N3        30.22S
AUSTIN         CLOUDY    57  50  77 N9G16     30.25R
PRESTON        CLOUDY    58  47  67 N6        30.23R
$$
ABBREVIATIONS USED IN REMARKS
   TC - TEMPERATURES IN CELSIUS
  WCI - WIND CHILL INDEX
   HX - HEAT INDEX
  VSB - VISIBILITY
$$



USA.gov is the U.S. government's official web portal to all federal, state and local government web resources and services.